Date String (YYYY-MM-DD hh:mm:ss) UTC,Instrument flags,Ambient pressure (hPa),Sample flow (lpm),Bypass flow (lpm),Sample temperature (°C),Ambient temperature (°C),ASC tube jacket temperature (°C),LED temperature (°C),Box temperature (°C),Sample RH (%),Span deviation,Mass concentration (μg/m³),Mass concentration (μg/m³),Mass concentration (μg/m³)
DateTimeUTC,F1_M11,P_M11,Q1_M11,Q2_M11,T1_M11,T2_M11,T3_M11,T4_M11,T5_M11,U1_M11,ZSPAN_M11,X0_M11,X2_M11,X1_M11
2022-10-10 06:00:00,,0830.4,5.01,0.00,29.6,27.9,00.0,38.5,31.4,12.7,0000.0,0008.86,0005.42,0004.98
2022-10-10 06:01:00,,0830.4,4.99,0.00,29.6,27.9,00.0,38.5,31.4,12.7,0000.0,0008.82,0005.42,0004.99
2022-10-10 06:02:00,,0830.4,5.01,0.00,29.6,27.9,00.0,38.5,31.4,12.7,0000.0,0008.80,0005.43,0005.00
2022-10-10 06:03:00,,0830.4,5.00,0.00,29.6,27.9,00.0,38.5,31.4,12.7,0000.0,0008.66,0005.39,0004.99
2022-10-10 06:04:00,,0830.3,4.99,0.00,29.6,28.0,00.0,38.4,31.3,12.7,0000.0,0008.72,0005.39,0005.00
2022-10-10 06:05:00,,0830.3,5.01,0.00,29.6,28.0,00.0,38.4,31.3,12.8,0000.0,0008.99,0005.38,0005.00
2022-10-10 06:06:00,,0830.3,4.99,0.00,29.6,27.9,00.0,38.4,31.3,12.8,0000.0,0009.11,0005.40,0005.00
2022-10-10 06:07:00,,0830.3,5.00,0.00,29.6,27.9,00.0,38.4,31.4,12.8,0000.0,0009.47,0005.42,0005.01
2022-10-10 06:08:00,,0830.3,5.01,0.00,29.6,27.9,00.0,38.4,31.3,12.7,0000.0,0009.43,0005.44,0005.04
2022-10-10 06:09:00,,0830.3,4.99,0.00,29.6,27.9,00.0,38.4,31.3,12.7,0000.0,0009.57,0005.49,0005.06
2022-10-10 06:10:00,,0830.2,5.00,0.00,29.6,27.9,00.0,38.4,31.3,12.7,0000.0,0009.99,0005.51,0005.07
2022-10-10 06:11:00,,0830.3,5.00,0.00,29.6,27.9,00.0,38.4,31.3,12.7,0000.0,0010.10,0005.51,0005.09
2022-10-10 06:12:00,,0830.2,5.01,0.00,29.5,27.9,00.0,38.4,31.3,12.7,0000.0,0009.92,0005.53,0005.11
2022-10-10 06:13:00,,0830.2,5.00,0.00,29.5,27.9,00.0,38.4,31.3,12.7,0000.0,0009.96,0005.55,0005.13
2022-10-10 06:14:00,,0830.3,5.00,0.00,29.5,27.9,00.0,38.4,31.3,12.7,0000.0,0010.09,0005.58,0005.15
2022-10-10 06:15:00,,0830.2,5.00,0.00,29.5,27.8,00.0,38.4,31.3,12.7,0000.0,0010.03,0005.60,0005.17
2022-10-10 06:16:00,,0830.2,5.00,0.00,29.5,27.8,00.0,38.4,31.2,12.7,0000.0,0009.79,0005.65,0005.19
2022-10-10 06:17:00,,0830.2,5.00,0.00,29.5,27.8,00.0,38.4,31.3,12.7,0000.0,0009.72,0005.68,0005.20
2022-10-10 06:18:00,,0830.2,5.01,0.00,29.5,27.8,00.0,38.4,31.2,12.6,0000.0,0009.23,0005.68,0005.21
2022-10-10 06:19:00,,0830.1,4.99,0.00,29.5,27.8,00.0,38.3,31.3,12.6,0000.0,0009.81,0005.69,0005.22
2022-10-10 06:20:00,,0830.1,5.00,0.00,29.5,27.8,00.0,38.3,31.2,12.6,0000.0,0009.87,0005.67,0005.20
2022-10-10 06:21:00,,0830.1,5.01,0.00,29.5,27.8,00.0,38.3,31.2,12.6,0000.0,0009.82,0005.68,0005.18
2022-10-10 06:22:00,,0830.1,4.99,0.00,29.5,27.7,00.0,38.3,31.2,12.6,0000.2,0009.85,0005.68,0005.17
2022-10-10 06:23:00,,0830.2,5.00,0.00,29.5,27.7,00.0,38.3,31.2,12.5,0000.0,0010.02,0005.70,0005.17
2022-10-10 06:24:00,,0830.1,5.01,0.00,29.4,27.7,00.0,38.3,31.2,12.5,0000.0,0010.10,0005.69,0005.15
2022-10-10 06:25:00,,0830.1,5.00,0.00,29.4,27.7,00.0,38.3,31.1,12.5,0000.0,0010.22,0005.70,0005.14
2022-10-10 06:26:00,,0830.1,5.00,0.00,29.4,27.7,00.0,38.3,31.2,12.4,0000.0,0010.35,0005.73,0005.13
2022-10-10 06:27:00,,0830.1,5.00,0.00,29.4,27.7,00.0,38.3,31.2,12.5,0000.0,0010.95,0005.72,0005.12
2022-10-10 06:28:00,,0830.1,5.00,0.00,29.4,27.7,00.0,38.3,31.1,12.4,0000.0,0011.49,0005.72,0005.11
2022-10-10 06:29:00,,0830.1,5.00,0.00,29.4,27.6,00.0,38.3,31.1,12.3,0000.0,0011.54,0005.75,0005.11
2022-10-10 06:30:00,,0830.1,5.01,0.00,29.4,27.7,00.0,38.3,31.2,12.3,0000.0,0011.87,0005.75,0005.09
2022-10-10 06:31:00,,0830.2,4.99,0.00,29.4,27.7,00.0,38.2,31.1,12.3,0000.0,0011.81,0005.73,0005.08
2022-10-10 06:32:00,,0830.1,5.00,0.00,29.4,27.6,00.0,38.2,31.1,12.3,0000.0,0011.41,0005.69,0005.08
2022-10-10 06:33:00,,0830.1,5.00,0.00,29.4,27.6,00.0,38.2,31.1,12.3,0000.0,0011.43,0005.67,0005.07
2022-10-10 06:34:00,,0830.1,5.00,0.00,29.4,27.6,00.0,38.2,31.1,12.2,0000.0,0011.31,0005.63,0005.06
2022-10-10 06:35:00,,0830.1,4.99,0.00,29.3,27.6,00.0,38.2,31.1,12.1,0000.0,0011.17,0005.59,0005.05
2022-10-10 06:36:00,,0830.1,4.99,0.00,29.3,27.6,00.0,38.2,31.1,12.1,0000.0,0011.22,0005.58,0005.04
2022-10-10 06:37:00,,0830.1,5.01,0.00,29.3,27.6,00.0,38.2,31.1,12.0,0000.0,0011.44,0005.52,0005.02
2022-10-10 06:38:00,,0830.1,5.00,0.00,29.3,27.6,00.0,38.2,31.1,11.9,0000.0,0011.07,0005.47,0004.99
2022-10-10 06:39:00,,0830.1,5.00,0.00,29.3,27.6,00.0,38.2,31.1,11.7,0000.0,0010.29,0005.40,0004.94
2022-10-10 06:40:00,,0830.1,5.01,0.00,29.3,27.6,00.0,38.2,31.0,11.9,0000.0,0010.29,0005.32,0004.89
2022-10-10 06:41:00,,0830.1,5.01,0.00,29.3,27.6,00.0,38.2,31.0,11.8,0000.0,0009.50,0005.27,0004.84
2022-10-10 06:42:00,,0830.1,5.00,0.00,29.3,27.6,00.0,38.2,31.0,11.8,0000.0,0009.18,0005.21,0004.80
2022-10-10 06:43:00,,0830.0,5.00,0.00,29.3,27.6,00.0,38.1,31.0,11.8,0000.0,0009.14,0005.17,0004.75
2022-10-10 06:44:00,,0830.0,5.01,0.00,29.3,27.5,00.0,38.1,30.9,11.6,0000.0,0008.93,0005.11,0004.70
2022-10-10 06:45:00,,0830.0,4.99,0.00,29.2,27.5,00.0,38.1,31.0,11.6,0000.0,0009.01,0005.08,0004.65
2022-10-10 06:46:00,,0830.0,5.00,0.00,29.2,27.5,00.0,38.1,31.0,11.6,0000.0,0009.50,0005.05,0004.61
2022-10-10 06:47:00,,0830.0,5.00,0.00,29.2,27.5,00.0,38.1,31.0,11.6,0000.0,0009.24,0004.99,0004.57
2022-10-10 06:48:00,,0829.9,5.00,0.00,29.2,27.5,00.0,38.1,31.0,11.6,0000.0,0008.88,0004.96,0004.52
2022-10-10 06:49:00,,0830.0,5.01,0.00,29.2,27.5,00.0,38.1,31.0,11.6,0000.0,0008.75,0004.94,0004.49
2022-10-10 06:50:00,,0829.9,4.99,0.00,29.2,27.5,00.0,38.1,31.0,11.7,0000.0,0008.74,0004.94,0004.48
2022-10-10 06:51:00,,0830.0,4.99,0.00,29.2,27.5,00.0,38.1,30.9,11.7,0000.0,0008.59,0004.92,0004.46
2022-10-10 06:52:00,,0829.9,5.00,0.00,29.2,27.5,00.0,38.1,30.9,11.6,0000.0,0008.45,0004.89,0004.45
2022-10-10 06:53:00,,0829.9,5.01,0.00,29.2,27.5,00.0,38.0,30.9,11.7,0000.0,0008.46,0004.90,0004.44
2022-10-10 06:54:00,,0829.9,4.99,0.00,29.2,27.5,00.0,38.0,30.9,11.7,0000.0,0008.44,0004.90,0004.43
2022-10-10 06:55:00,,0830.0,5.00,0.00,29.2,27.5,00.0,38.0,30.9,11.7,0000.0,0008.44,0004.91,0004.42
2022-10-10 06:56:00,,0829.8,5.01,0.00,29.1,27.4,00.0,38.0,30.9,11.7,0000.0,0008.23,0004.90,0004.40
2022-10-10 06:57:00,,0829.8,4.99,0.00,29.1,27.4,00.0,38.0,30.8,11.7,0000.0,0007.96,0004.90,0004.39
2022-10-10 06:58:00,,0829.9,5.01,0.00,29.1,27.4,00.0,38.0,30.9,11.7,0000.0,0008.05,0004.90,0004.38
2022-10-10 06:59:00,,0829.9,5.00,0.00,29.1,27.4,00.0,38.0,30.9,11.7,0000.0,0008.11,0004.89,0004.38
